Content
SEND FEEDBACK

Daily
Averages
Monthly
Summary
United States of America

DELMITA, TEXAS


Home > North America > United States > Texas
Elevation: 298 feet     Latitude: 26 29N     Longitude: 098 23W

WEATHER
 
SELECT A DAY
Number of Records: 241,184;   Date Range: 10/30/03 - 8/12/14
 
SHARE

PRINT THIS DATA

[ ← Previous Day ]
WEATHER ALMANAC - JANUARY 31, 2013
[ Next Day → ]
[ °C ]   °F
Weather ElementAverageHighLow
Temperature58.5 °F72.9 °F (3:15 pm)43.7 °F (4:15 am)
Dewpoint28.3 °F42.3 °F (11:35 pm)19.8 °F (11:35 am)
Humidity34.9 %64 % (11:35 pm)14 % (2:15 pm)
Barometer30.27 in30.35 in (10:35 am)30.21 in (3:35 pm)
Wind Speed4.4 mph13.8 mph (5:55 pm)
Wind Gust17.3 mph (3:35 pm)
Weather ElementAverage
Visibility7.1 mi
Wind DirectionESE (103.4 °)

Weather ElementTotal
Precipitation---
Heating Degree Days6.7 (Base 65)
Growing Degree Days8.3 (Base 50)
Averaged from 67 records on January 31, 2013
WEATHER CONDITIONS BREAKOUT
WIND DIRECTION BREAKOUT
WEATHER BY HOUR - JANUARY 31, 2013
[ °C ]   °F
Local TimeTemperatureDewpointHumidityBarometerVisibilityWind DirectionWind SpeedGust SpeedPrecipitationEventsConditions
12:55 AM45.9 °F21.9 °F39 %30.27 in7.0 miCalmClear
1:15 AM45.5 °F22.6 °F41 %30.27 in7.0 miCalmClear
1:35 AM44.8 °F24.8 °F46 %30.27 in7.0 miCalmClear
1:55 AM44.4 °F24.8 °F46 %30.28 in7.0 miCalmClear
2:15 AM45.1 °F25.3 °F46 %30.27 in7.0 miCalmClear
2:35 AM44.8 °F24.8 °F46 %30.27 in7.0 miCalmClear
2:55 AM44.6 °F22.5 °F42 %30.27 in7.0 miCalmClear
3:15 AM44.6 °F24.1 °F44 %30.27 in7.0 miCalmClear
3:35 AM44.8 °F23.0 °F42 %30.27 in10.0 miCalmClear
3:55 AM43.9 °F21.7 °F41 %30.28 in7.0 miCalmClear
4:15 AM43.7 °F21.6 °F41 %30.27 in7.0 miCalmClear
4:35 AM44.8 °F21.7 °F40 %30.28 in7.0 miWNW (290°)3.5 mphClear
4:55 AM44.6 °F22.6 °F42 %30.27 in7.0 miCalmClear
5:15 AM45.0 °F23.0 °F42 %30.28 in7.0 miWNW (290°)3.5 mphClear
5:35 AM45.0 °F24.3 °F44 %30.28 in7.0 miWNW (300°)3.5 mphClear
5:55 AM45.7 °F24.6 °F44 %30.28 in7.0 miCalmClear
6:15 AM46.4 °F24.1 °F42 %30.28 in7.0 miCalmClear
6:35 AM46.2 °F24.8 °F43 %30.28 in7.0 miCalmClear
6:55 AM45.5 °F22.1 °F40 %30.29 in7.0 miNW (310°)3.5 mphClear
7:15 AM45.9 °F23.7 °F42 %30.29 in7.0 miCalmClear
7:35 AM46.4 °F21.9 °F38 %30.31 in5.0 miWNW (300°)3.5 mphHaze
7:55 AM46.8 °F24.3 °F41 %30.31 in7.0 miCalmClear
8:15 AM47.8 °F24.6 °F40 %30.31 in5.0 miCalmHaze
8:35 AM49.8 °F21.7 °F33 %30.33 in7.0 miCalmClear
8:55 AM54.7 °F21.9 °F28 %30.33 in5.0 miCalmHaze
9:15 AM57.9 °F23.7 °F27 %30.33 in7.0 miCalmClear
9:35 AM61.7 °F27.1 °F27 %30.33 in5.0 miCalmHaze
9:55 AM64.8 °F27.9 °F25 %30.34 in5.0 miSSE (160°)4.6 mphHaze
10:15 AM65.7 °F27.9 °F24 %30.34 in7.0 miSouth (170°)5.8 mphClear
10:35 AM66.6 °F29.5 °F25 %30.35 in7.0 miSouth (190°)6.9 mphClear
10:55 AM67.8 °F29.1 °F24 %30.34 in7.0 miSSE (150°)5.8 mphClear
11:15 AM68.4 °F27.9 °F22 %30.34 in7.0 miSouth (190°)6.9 mphClear
11:35 AM70.2 °F19.8 °F15 %30.34 in7.0 miSSE (160°)10.4 mphClear
11:55 AM70.0 °F23.9 °F18 %30.33 in7.0 miSW (220°)4.6 mphClear
12:15 PM69.1 °F22.5 °F17 %30.31 in5.0 miSSE (160°)9.2 mphHaze
12:35 PM70.7 °F20.1 °F15 %30.30 in7.0 miSE (130°)8.1 mphClear
12:55 PM71.8 °F23.5 °F16 %30.29 in7.0 miSSE (160°)6.9 mphClear
1:15 PM71.6 °F21.9 °F15 %30.28 in7.0 miCalmClear
1:35 PM72.5 °F23.4 °F16 %30.25 in7.0 miSSE (150°)5.8 mphClear
1:55 PM72.7 °F23.7 °F16 %30.24 in7.0 miSE (140°)9.2 mphClear
2:15 PM72.5 °F21.0 °F14 %30.23 in7.0 miSE (140°)8.1 mphClear
2:35 PM72.3 °F19.8 °F14 %30.24 in7.0 miSouth (180°)3.5 mphClear
2:55 PM72.5 °F23.0 °F16 %30.23 in7.0 miSSE (150°)6.9 mphClear
3:15 PM72.9 °F23.7 °F16 %30.23 in7.0 miSSW (200°)3.5 mphClear
3:35 PM71.8 °F25.7 °F18 %30.21 in7.0 miSSE (160°)10.4 mph17.3 mphClear
3:55 PM72.1 °F27.0 °F19 %30.21 in7.0 miSSE (150°)5.8 mphClear
4:15 PM72.1 °F27.3 °F19 %30.21 in7.0 miSSE (160°)9.2 mphClear
4:35 PM72.0 °F27.7 °F19 %30.21 in5.0 miSE (140°)4.6 mphHaze
4:55 PM72.1 °F29.1 °F20 %30.21 in5.0 miSE (140°)4.6 mphHaze
5:15 PM72.1 °F29.7 °F21 %30.21 in5.0 miSE (130°)4.6 mphHaze
5:55 PM68.7 °F33.3 °F27 %30.21 in7.0 miESE (110°)13.8 mphClear
6:15 PM67.1 °F35.4 °F31 %30.22 in7.0 miESE (120°)13.8 mphClear
6:35 PM65.8 °F36.5 °F34 %30.22 in10.0 miESE (120°)12.7 mphClear
7:15 PM64.0 °F39.6 °F41 %30.23 in10.0 miESE (120°)12.7 mphClear
7:35 PM63.5 °F40.3 °F43 %30.24 in10.0 miESE (120°)10.4 mphClear
7:55 PM63.5 °F40.6 °F43 %30.24 in7.0 miESE (120°)10.4 mphClear
8:15 PM63.1 °F41.2 °F45 %30.25 in7.0 miESE (120°)8.1 mphClear
8:35 PM62.6 °F41.7 °F46 %30.26 in7.0 miESE (120°)8.1 mphClear
8:55 PM61.7 °F42.1 °F49 %30.26 in10.0 miSE (130°)8.1 mphClear
9:15 PM59.9 °F42.1 °F52 %30.27 in10.0 miESE (120°)3.5 mphClear
9:35 PM57.7 °F41.9 °F56 %30.28 in10.0 miEast (100°)5.8 mphClear
9:55 PM58.1 °F42.1 °F55 %30.28 in7.0 miEast (80°)3.5 mphClear
10:15 PM57.2 °F41.7 °F56 %30.28 in10.0 miEast (90°)5.8 mphClear
10:35 PM55.9 °F41.4 °F58 %30.28 in7.0 miESE (110°)4.6 mphClear
10:55 PM54.5 °F41.5 °F62 %30.28 in7.0 miESE (110°)5.8 mphClear
11:15 PM54.7 °F41.9 °F62 %30.29 in10.0 miEast (100°)3.5 mphClear
11:35 PM54.1 °F42.3 °F64 %30.29 in7.0 miESE (120°)4.6 mphClear
Hourly data recorded from KEBG, located miles away from Delmita, Texas







STORIES FROM OUR PARTNERS